sat.trackr.live / text

‹ back to catalog

STARLINK-36686

NORAD 68719 · 2026-081W

PAYLOAD ACTIVE UNKNOWN

§ Identity

Operator
Country
US
Launch date
2026-04-14
Launch site
AFETR
Launch vehicle
Mass (kg)
RCS (m²)

Purposes: comms

External: N2YO · Heavens-Above · Gunter

§ Orbital elements

Epoch: 2026-05-25T04:00:03.998880Z

Period
93.09 min
Inclination
53.1604°
Eccentricity
0.0001299
Mean motion
15.46960258 rev/d
Perigee alt
424.7 km
Apogee alt
426.5 km
Semi-major
6,803.8 km
B*
-4.0326e-2
RAAN
38.8850°
Arg perigee
95.6642°
Mean anomaly
185.0513°
Rev number
585

§ Raw data

STARLINK-366861 68719U 26081W   26145.16671295 -.01859828  00000+0 -40326-1 0  99912 68719  53.1604  38.8850 0001299  95.6642 185.0513 15.46960258  5854

JSON: /api/v1/satellites/68719 · /tle

For live sub-satellite position, see the globe view (requires WebGL).

§ Visibility from observer

Set your observer location to see the next 7 days of passes ≥ 10°. The values pass through the URL so the page stays shareable.

No JS? Fill the form by hand. The geolocation button needs JavaScript.